Location: Bytom
(50.3475°N, 18.9244°E)
Time: 22:46:07
(UTC+01:00)

ISS - Pass Details

Date: 27 January 2019
Orbit: 403 x 411 km, 51.6° (Epoch: 23 February)

Event Time Altitude Azimuth Distance (km) Brightness Sun altitude
Rises 18:20:13 0° 248° (WSW) 2,331 1.5 -17.7°
Reaches altitude 10° 18:22:18 10° 247° (WSW) 1,473 0.2 -18.0°
Maximum altitude 18:25:36 77° 162° (SSE) 426 -3.9 -18.6°
Enters shadow 18:25:54 68° 107° (ESE) 446 -3.9 -18.6°
